Weather History for Los Alamitos, CA

Change the Weather History Date:

Sunday, January 27, 2013

  Actual Average Record
Temperature  
Mean Temperature 55 °F -  
Max Temperature 60 °F 67 °F 80 °F (2003)
Min Temperature 47 °F 49 °F 40 °F (2009)
Degree Days  
Heating Degree Days 10    
Growing Degree Days 5 (Base 50)    
Moisture  
Dew Point 51 °F    
Average Humidity 89    
Maximum Humidity 100    
Minimum Humidity 58    
Precipitation  
Precipitation 0.00 in - - ()
Sea Level Pressure  
Sea Level Pressure 30.00 in    
Wind  
Wind Speed 6 mph (South)    
Max Wind Speed 13 mph    
Max Gust Speed -    
Visibility 8 miles    
Events Rain    
Averages and records for this station are not official NWS values.
T = Trace of Precipitation, MM = Missing Value Source: NWS Daily Summary

Daily Weather History Graph

Daily Weather History Graph

Search for Another Location

Airport:

Trip Planner

Search our weather history database for the weather conditions in past years. The results will help you decide how hot, cold, wet, or windy it might be!

Date:

Astronomy

Jan. 27, 2013 Rise Set
Actual Time 6:51 AM PST 5:18 PM PST
Civil Twilight 6:25 AM PST 5:45 PM PST
Nautical Twilight 5:55 AM PST 6:15 PM PST
Astronomical Twilight 5:25 AM PST 6:44 PM PST
Moon 6:12 PM PST (1/27) 6:51 AM PST (1/27)
Length of Visible Light 11h 19m
Length of Day
10h 26m
Full, 100% of the Moon is Illuminated
Jan 27
Full
Feb 3
Last Quarter
Feb 9
New
Feb 17
First Quarter
Feb 25
Full

Hourly Weather History & Observations

Time (PST) Temp. Dew Point Humidity Pressure Visibility Wind Dir Wind Speed Gust Speed Precip Events Conditions
12:08 AM 57.2 °F 57.2 °F 100% 30.00 in 10.0 mi SSE 5.8 mph - N/A   Overcast
12:38 AM 57.2 °F 57.2 °F 100% 30.00 in 7.0 mi SSE 6.9 mph - N/A   Overcast
12:58 AM 55.9 °F 55.9 °F 100% 30.01 in 7.0 mi SSE 8.1 mph - N/A   Overcast
1:58 AM 55.4 °F 55.4 °F 100% 30.01 in 10.0 mi SE 3.5 mph - N/A   Overcast
2:08 AM 55.4 °F 55.4 °F 100% 30.00 in 10.0 mi SE 4.6 mph - N/A   Overcast
2:18 AM 55.4 °F 55.4 °F 100% 30.00 in 10.0 mi SE 4.6 mph - N/A   Overcast
2:23 AM 55.4 °F 55.4 °F 100% 30.00 in 10.0 mi SE 4.6 mph - N/A   Overcast
2:58 AM 55.6 °F 55.6 °F 100% 30.00 in 10.0 mi SSE 5.8 mph - N/A   Overcast
3:28 AM 55.4 °F 55.4 °F 100% 29.98 in 6.0 mi SE 5.8 mph - N/A   Overcast
3:38 AM 55.4 °F 55.4 °F 100% 29.98 in 7.0 mi SSE 5.8 mph - N/A   Overcast
3:53 AM 55.4 °F 55.4 °F 100% 29.98 in 9.0 mi SSE 4.6 mph - N/A   Overcast
3:58 AM 55.0 °F 55.0 °F 100% 29.99 in 10.0 mi Variable 2.3 mph - N/A   Overcast
4:18 AM 55.4 °F 55.4 °F 100% 29.98 in 10.0 mi South 5.8 mph - N/A   Overcast
4:58 AM 55.2 °F 55.2 °F 100% 29.99 in 10.0 mi SSE 5.8 mph - N/A   Overcast
5:18 AM 55.4 °F 55.4 °F 100% 29.98 in 7.0 mi SE 6.9 mph - N/A   Overcast
5:33 AM 53.6 °F 53.6 °F 100% 29.98 in 8.0 mi SSE 9.2 mph - N/A   Overcast
5:43 AM 53.6 °F 53.6 °F 100% 29.98 in 9.0 mi SSE 6.9 mph - N/A   Overcast
5:48 AM 53.6 °F 53.6 °F 100% 29.98 in 10.0 mi SE 5.8 mph - N/A   Overcast
5:58 AM 54.0 °F 54.0 °F 100% 29.99 in 10.0 mi ESE 5.8 mph - N/A   Overcast
6:53 AM 53.6 °F 53.6 °F 100% 30.00 in 8.0 mi SE 5.8 mph - N/A   Overcast
6:58 AM 54.3 °F 53.2 °F 96% 30.01 in 6.0 mi SE 8.1 mph - N/A   Overcast
7:03 AM 53.6 °F 53.6 °F 100% 30.00 in 6.0 mi SE 6.9 mph - N/A   Overcast
7:08 AM 53.6 °F 53.6 °F 100% 30.00 in 4.0 mi SE 5.8 mph - N/A   Light Drizzle
7:13 AM 53.6 °F 53.6 °F 100% 30.00 in 3.0 mi SE 5.8 mph - N/A   Light Drizzle
7:18 AM 53.6 °F 53.6 °F 100% 30.00 in 3.0 mi SSE 4.6 mph - N/A Rain Light Rain
7:23 AM 53.6 °F 53.6 °F 100% 30.01 in 3.0 mi SSE 4.6 mph - N/A Rain Light Rain
7:28 AM 53.6 °F 53.6 °F 100% 30.00 in 2.5 mi SSE 3.5 mph - N/A   Light Drizzle
7:33 AM 53.6 °F 53.6 °F 100% 30.00 in 3.0 mi SE 4.6 mph - N/A   Light Drizzle
7:58 AM 54.0 °F 54.0 °F 100% 30.01 in 4.0 mi SE 6.9 mph - 0.00 in   Overcast
8:15 AM 53.6 °F 53.6 °F 100% 30.01 in 5.0 mi SE 4.6 mph - N/A   Mostly Cloudy
8:58 AM 56.3 °F 55.8 °F 98% 30.03 in 6.0 mi West 8.1 mph - N/A   Mostly Cloudy
9:47 AM 57.2 °F 53.6 °F 88% 30.03 in 8.0 mi WSW 4.6 mph - N/A   Mostly Cloudy
9:58 AM 57.6 °F 52.3 °F 83% 30.04 in 10.0 mi SW 8.1 mph - N/A   Mostly Cloudy
10:37 AM 59.0 °F 50.0 °F 72% 30.03 in 10.0 mi SW 9.2 mph - N/A   Mostly Cloudy
10:58 AM 58.1 °F 47.1 °F 67% 30.04 in 10.0 mi SSW 10.4 mph - N/A   Mostly Cloudy
11:58 AM 60.1 °F 45.3 °F 58% 30.02 in 10.0 mi SW 6.9 mph - N/A   Mostly Cloudy
12:58 PM 59.0 °F 46.8 °F 64% 30.00 in 10.0 mi SW 10.4 mph - N/A   Scattered Clouds
1:58 PM 59.4 °F 46.9 °F 63% 29.99 in 10.0 mi SSW 10.4 mph - N/A   Mostly Cloudy
2:58 PM 58.1 °F 47.5 °F 68% 29.99 in 10.0 mi SW 12.7 mph - N/A   Scattered Clouds
3:58 PM 57.0 °F 45.7 °F 66% 29.99 in 10.0 mi SW 11.5 mph - N/A   Clear
4:58 PM 54.1 °F 44.4 °F 70% 29.98 in 10.0 mi SW 9.2 mph - N/A   Clear
5:58 PM 53.8 °F 47.1 °F 78% 29.99 in 10.0 mi SW 8.1 mph - N/A   Mostly Cloudy
6:58 PM 54.5 °F 47.1 °F 76% 30.00 in 10.0 mi SSW 5.8 mph - N/A   Overcast
7:58 PM 54.0 °F 45.9 °F 74% 30.00 in 10.0 mi South 3.5 mph - N/A   Scattered Clouds
8:58 PM 52.2 °F 46.0 °F 80% 30.00 in 10.0 mi North 3.5 mph - N/A   Clear
9:58 PM 51.3 °F 43.9 °F 76% 30.01 in 10.0 mi NNW 5.8 mph - N/A   Mostly Cloudy
10:03 PM 51.8 °F 41.0 °F 67% 30.00 in 10.0 mi NNW 2.3 mph - N/A   Mostly Cloudy
10:28 PM 51.8 °F 41.0 °F 67% 30.01 in 10.0 mi NNW 5.8 mph - N/A   Mostly Cloudy
10:58 PM 50.4 °F 40.3 °F 68% 30.02 in 10.0 mi NNW 3.5 mph - N/A   Partly Cloudy
11:58 PM 47.8 °F 39.7 °F 74% 30.04 in 10.0 mi NW 2.3 mph - N/A   Clear